Fayetteville, AR

6:34 AM CDT on March 23, 2017 (GMT -0500)
Drake

Weather History for KFYV - May, 2014

Change the Weather History Date:

Thursday, May 15, 2014

  Actual Average Record
Temperature  
Mean Temperature 52 °F 65 °F  
Max Temperature 67 °F 76 °F 86 °F (1995)
Min Temperature 37 °F 54 °F 35 °F (1973)
Degree Days  
Heating Degree Days 14    
Cooling Degree Days 0 2  
Month to date cooling degree days 65 25  
Year to date cooling degree days 77 53  
Moisture  
Dew Point 41 °F    
Average Humidity 72    
Maximum Humidity 100    
Minimum Humidity 44    
Precipitation  
Precipitation 0.00 in 0.20 in 1.82 in (1956)
Month to date precipitation 2.68 2.95  
Year to date precipitation 13.77 17.12  
Sea Level Pressure  
Sea Level Pressure 30.15 in    
Wind  
Wind Speed 8 mph (SW)    
Max Wind Speed 23 mph    
Max Gust Speed 30 mph    
Visibility 8 miles    
Events Fog    
T = Trace of Precipitation, MM = Missing Value Source: NWS Daily Summary

Daily Weather History Graph

Daily Weather History Graph

Search for Another Location

Airport or City:

Trip Planner

Search our weather history database for the weather conditions in past years. The results will help you decide how hot, cold, wet, or windy it might be!

Date:

Astronomy

May. 15, 2014 Rise Set
Actual Time 6:10 AM CDT 8:15 PM CDT
Civil Twilight 5:42 AM CDT 8:44 PM CDT
Nautical Twilight 5:07 AM CDT 9:19 PM CDT
Astronomical Twilight 4:30 AM CDT 9:56 PM CDT
Moon 9:24 PM CDT (5/15) 6:57 AM CDT (5/15)
Length of Visible Light 15h 01m
Length of Day
14h 04m
Full, 99% of the Moon is Illuminated
May 15
Full
May 21
Last Quarter
May 28
New
Jun 5
First Quarter
Jun 12
Full

Hourly Weather History & Observations

Time (CDT) Temp. Windchill Dew Point Humidity Pressure Visibility Wind Dir Wind Speed Gust Speed Precip Events Conditions
12:53 AM 42.1 °F 39.2 °F 42.1 °F 100% 30.19 in 8.0 mi South 4.6 mph - N/A   Clear
1:53 AM 41.0 °F 39.0 °F 41.0 °F 100% 30.18 in 9.0 mi SSW 3.5 mph - N/A   Clear
2:53 AM 39.9 °F 37.8 °F 39.9 °F 100% 30.15 in 7.0 mi South 3.5 mph - N/A   Clear
3:02 AM 39.2 °F - 39.2 °F 100% 30.15 in 6.0 mi Calm Calm - N/A   Scattered Clouds
3:22 AM 39.2 °F 37.0 °F 39.2 °F 100% 30.14 in 1.8 mi South 3.5 mph - N/A   Mostly Cloudy
3:33 AM 39.2 °F 35.9 °F 39.2 °F 100% 30.14 in 0.8 mi South 4.6 mph - N/A   Mist
3:53 AM 39.0 °F 35.7 °F 39.0 °F 100% 30.15 in 0.5 mi South 4.6 mph - N/A Fog Fog
4:08 AM 37.4 °F 33.8 °F 37.4 °F 100% 30.14 in 2.0 mi South 4.6 mph - N/A   Mostly Cloudy
4:16 AM 37.4 °F 34.9 °F 37.4 °F 100% 30.14 in 7.0 mi South 3.5 mph - N/A   Scattered Clouds
4:53 AM 37.9 °F 34.4 °F 37.9 °F 100% 30.15 in 4.0 mi South 4.6 mph - N/A   Scattered Clouds
5:53 AM 37.0 °F 34.5 °F 37.0 °F 100% 30.17 in 10.0 mi South 3.5 mph - N/A   Mostly Cloudy
6:53 AM 39.0 °F 35.7 °F 39.0 °F 100% 30.18 in 10.0 mi South 4.6 mph - N/A   Overcast
7:53 AM 43.0 °F 40.3 °F 42.1 °F 97% 30.18 in 10.0 mi South 4.6 mph - N/A   Overcast
8:53 AM 53.1 °F - 46.9 °F 80% 30.16 in 10.0 mi WSW 11.5 mph 20.7 mph N/A   Clear
9:53 AM 55.9 °F - 46.0 °F 69% 30.16 in 10.0 mi West 10.4 mph 18.4 mph N/A   Clear
10:53 AM 60.1 °F - 46.9 °F 62% 30.17 in 10.0 mi West 9.2 mph - N/A   Clear
11:53 AM 62.1 °F - 48.9 °F 62% 30.17 in 10.0 mi WNW 10.4 mph 17.3 mph N/A   Clear
12:53 PM 64.0 °F - 48.0 °F 56% 30.15 in 10.0 mi WNW 12.7 mph 18.4 mph N/A   Clear
2:53 PM 62.1 °F - 43.0 °F 50% 30.12 in 10.0 mi NW 12.7 mph 19.6 mph N/A   Mostly Cloudy
3:53 PM 64.0 °F - 44.1 °F 48% 30.11 in 10.0 mi NW 10.4 mph 25.3 mph N/A   Scattered Clouds
4:53 PM 59.0 °F - 37.9 °F 46% 30.12 in 10.0 mi NNW 19.6 mph 27.6 mph N/A   Mostly Cloudy
5:53 PM 59.0 °F - 37.0 °F 44% 30.12 in 10.0 mi WNW 15.0 mph 24.2 mph N/A   Clear
6:53 PM 57.9 °F - 37.9 °F 47% 30.13 in 10.0 mi NW 12.7 mph - N/A   Clear
7:53 PM 54.0 °F - 39.0 °F 57% 30.14 in 10.0 mi NW 5.8 mph - N/A   Clear
8:53 PM 48.0 °F - 42.1 °F 80% 30.15 in 10.0 mi Calm Calm - N/A   Clear
9:53 PM 44.1 °F 41.5 °F 42.1 °F 93% 30.17 in 10.0 mi South 4.6 mph - N/A   Clear
10:53 PM 43.0 °F - 42.1 °F 97% 30.16 in 10.0 mi Calm Calm - N/A   Clear
11:53 PM 41.0 °F 39.0 °F 39.9 °F 96% 30.15 in 10.0 mi South 3.5 mph - N/A   Clear